GEOSCAN 4 (RS92S4)

Last updated on Tue Aug 25 2026 00:03:14 GMT+0000 (Coordinated Universal Time)

1 64892U 25155S 26236.60631077 .00014417 00000+0 42459-3 0 9999 2 64892 97.4608 206.7674 0003758 316.4176 43.6770 15.35149230 91312
UTC large
Height (km)
Speed (km/s)
/
Latitude / Longitude
Inclination (degrees)
Orbital Period (minutes)
Azimuth
Elevation
Range (km)
Doppler Factor

Next 0 passes for location: London (51.5072 / 0.1276)

No passes found over London.
GEOSCAN 4 (RS92S4)